ZHONGXING-6D

Last updated on Thu Nov 21 2024 00:02:44 GMT+0000 (Coordinated Universal Time)

1 52255U 22038A 24325.48579123 -.00000352 00000+0 00000+0 0 9998 2 52255 0.0257 270.2879 0003079 343.0312 106.6636 1.00271637 9661
UTC large
Height (km)
Speed (km/s)
/
Latitude / Longitude
Inclination (degrees)
Orbital Period (minutes)
Azimuth
Elevation
Range (km)
Doppler Factor

Next 0 passes for location: London (51.5072 / 0.1276)

Sorry there are no passes over London.